Regional Weather Roundup
Issued by NWS

Home | Current Version | Previous Version | Text Only | Print | Product List | Glossary On
Versions: 1 2 3 4 5 6 7 8 9 10 11 12 13 14 15 16 17 18 19 20 21 22 23 24 25 26 27 28 29 30 31 32 33 34 35 36 37 38 39 40 41 42 43 44 45 46 47 48 49 50
000
ASUS43 KTOP 210708
RWRKS

WEATHER ROUNDUP FOR KANSAS
NATIONAL WEATHER SERVICE GOODLAND KS
200 AM CDT TUE APR 21 2015

NOTE:  "FAIR" INDICATES FEW OR NO CLOUDS BELOW 12,000 FEET WITH NO
SIGNIFICANT WEATHER AND/OR OBSTRUCTIONS TO VISIBILITY.

KSZ001>006-013>018-027>032-041>047-210800-
NORTHWEST KANSAS

CITY           SKY/WX    TMP DP  RH WIND       PRES   REMARKS
GOODLAND       CLEAR     42  30  62 SW7       29.94S
HAYS           PTCLDY    37  25  60 SW5       29.92S
HILL CITY      CLEAR     41  31  67 W6        29.90F
RUSSELL        PTCLDY    41  32  70 SW10      29.89F
$$

KSZ061>065-074>080-084>089-210800-
SOUTHWEST KANSAS

CITY           SKY/WX    TMP DP  RH WIND       PRES   REMARKS
DODGE CITY     CLOUDY    50  34  54 SW6       29.98R
ELKHART          N/A     45  38  77 SW5         N/A
GARDEN CITY    CLOUDY    48  35  60 CALM      29.97R
GREAT BEND     PTCLDY    45  36  70 W6        29.92S
LIBERAL        PTCLDY    45  30  57 W3        29.97S
PRATT          MOCLDY    46  37  71 SW10      29.94S
$$

KSZ066>073-081>083-090>101-210800-
SOUTHEAST KANSAS

CITY           SKY/WX    TMP DP  RH WIND       PRES   REMARKS
CHANUTE        CLOUDY    47  39  74 SW8       29.92S
COFFEYVILLE    PTCLDY    50  37  61 SW8       29.93F
HUTCHINSON     MOCLDY    41  36  82 W5        29.92S
MEDICINE LODGE   N/A     51  39  63 SW6       29.95R
NEWTON         PTCLDY    46  34  61 SW7       29.93S
PARSONS        CLOUDY    46  43  89 CALM      29.94S
WICHITA INTL   MOCLDY    47  38  71 SW9       29.92S
WICHITA JABRA  MOCLDY    51  37  58 SW9       29.92S
WICHITA MCCONL CLOUDY    50  38  62 S10       29.92S
WINFIELD       CLEAR     45  39  79 SW8       29.94F
$$

KSZ007>012-019>026-033>040-048>060-102>105-210800-
NORTHEAST KANSAS

CITY           SKY/WX    TMP DP  RH WIND       PRES   REMARKS
CONCORDIA      PTCLDY    45  27  49 W6        29.89S
EMPORIA        CLOUDY    49  37  63 SW10      29.89S
LAWRENCE       CLOUDY    38  35  89 CALM      29.87F
MANHATTAN      CLOUDY    40  34  79 CALM      29.89S
MARYSVILLE     MOCLDY    43  32  65 SW5       29.87S
OLATHE IND     CLOUDY    47  32  56 SW7       29.88S
OLATHE EXE     MOCLDY    47  31  53 W7        29.86F
SALINA         MOCLDY    47  37  68 SW9       29.90S
TOPEKA BILLARD CLOUDY    46  33  60 W3        29.88F
TOPEKA FORBES  CLOUDY    46  32  58 SW8       29.87F
$$



USA.gov is the U.S. government's official web portal to all federal, state and local government web resources and services.